This is the latest recevied weather packets stored in our database for station/object W4TTU-1. If no packets are shown the sender has not sent any weather packets the latest 10 day(s).
| Time | Temp. | Humidity | Pressure | Rain* | Wind** | Luminosity | Snow |
|---|---|---|---|---|---|---|---|
| 1777365724 | 0° C | 47% | 846.1 hPa | 0 mm | - | - | - |
| 1777364824 | 0° C | 48% | 846 hPa | 0 mm | - | - | - |
| 1777363923 | 0° C | 47% | 846.1 hPa | 0 mm | - | - | - |
| 1777363023 | 0.56° C | 48% | 846.1 hPa | 0 mm | - | - | - |
| 1777362122 | 0.56° C | 47% | 846.2 hPa | 0 mm | - | - | - |
| 1777361222 | 0.56° C | 47% | 846.2 hPa | 0 mm | - | - | - |
| 1777360322 | 0.56° C | 49% | 846.2 hPa | 0 mm | - | - | - |
| 1777359421 | 1.11° C | 47% | 846.2 hPa | 0 mm | - | - | - |
| 1777358521 | 1.11° C | 47% | 846.2 hPa | 0 mm | - | - | - |
| 1777357620 | 1.67° C | 47% | 846.1 hPa | 0 mm | - | - | - |
| 1777356722 | 1.67° C | 46% | 846 hPa | 0 mm | - | - | - |
| 1777355820 | 1.67° C | 46% | 846.1 hPa | 0 mm | - | - | - |
| 1777354918 | 2.22° C | 46% | 846.1 hPa | 0 mm | - | - | - |
| 1777354018 | 2.22° C | 45% | 846.2 hPa | 0 mm | - | - | - |
| 1777353117 | 2.78° C | 44% | 846.2 hPa | 0 mm | - | - | - |
| 1777352217 | 2.78° C | 44% | 846.1 hPa | 0 mm | - | - | - |
| 1777351316 | 2.78° C | 43% | 846.1 hPa | 0 mm | - | - | - |
| 1777350415 | 3.33° C | 42% | 846.3 hPa | 0 mm | - | - | - |
| 1777349515 | 3.33° C | 42% | 846.3 hPa | 0 mm | - | - | - |
| 1777348614 | 3.89° C | 42% | 846.5 hPa | 0 mm | - | - | - |
| 1777347714 | 3.89° C | 42% | 846.3 hPa | 0 mm | - | - | - |
| 1777346813 | 4.44° C | 42% | 846.2 hPa | 0 mm | - | - | - |
| 1777345913 | 4.44° C | 42% | 846.1 hPa | 0 mm | - | - | - |
| 1777345012 | 5° C | 41% | 845.9 hPa | 0 mm | - | - | - |
| 1777344112 | 5° C | 41% | 845.8 hPa | 0 mm | - | - | - |
* Rain since midnight (hover to see other rain measurements)
** Current wind speed in m/s (hover to see current wind gust speed)